Weather History for Clemson, SC

Change the Weather History Date:

Sunday, March 30, 2014

  Actual Average Record
Temperature  
Mean Temperature 58 °F -  
Max Temperature 71 °F 67 °F 83 °F (1989)
Min Temperature 45 °F 45 °F 25 °F (1964)
Degree Days  
Heating Degree Days 8    
Growing Degree Days 8 (Base 50)    
Moisture  
Dew Point 23 °F    
Average Humidity 32    
Maximum Humidity 53    
Minimum Humidity 13    
Precipitation  
Precipitation 0.00 in - - ()
Sea Level Pressure  
Sea Level Pressure 29.95 in    
Wind  
Wind Speed 11 mph (NW)    
Max Wind Speed 20 mph    
Max Gust Speed 23 mph    
Visibility 10 miles    
Events      
Averages and records for this station are not official NWS values.
T = Trace of Precipitation, MM = Missing Value Source: NWS Daily Summary

Daily Weather History Graph

Daily Weather History Graph

Search for Another Location

Airport:

Trip Planner

Search our weather history database for the weather conditions in past years. The results will help you decide how hot, cold, wet, or windy it might be!

Date:

Astronomy

Mar. 30, 2014 Rise Set
Actual Time 7:21 AM EDT 7:51 PM EDT
Civil Twilight 6:55 AM EDT 8:16 PM EDT
Nautical Twilight 6:26 AM EDT 8:46 PM EDT
Astronomical Twilight 5:56 AM EDT 9:16 PM EDT
Moon 7:06 AM EDT (3/30) 8:01 PM EDT (3/30)
Length of Visible Light 13h 20m
Length of Day
12h 29m
Waning Crescent, 0% of the Moon is Illuminated
Mar 30
Waning Crescent
Mar 30
New
Apr 7
First Quarter
Apr 15
Full
Apr 22
Last Quarter

Hourly Weather History & Observations

Time (EDT) Temp. Windchill Dew Point Humidity Pressure Visibility Wind Dir Wind Speed Gust Speed Precip Events Conditions
12:54 AM 50.0 °F - 30.0 °F 46% 29.83 in 10.0 mi WNW 13.8 mph - N/A   Clear
1:54 AM 50.0 °F - 30.0 °F 46% 29.83 in 10.0 mi WNW 15.0 mph 23.0 mph N/A   Partly Cloudy
2:54 AM 48.9 °F - 30.0 °F 48% 29.84 in 10.0 mi WNW 9.2 mph - N/A   Clear
3:54 AM 48.0 °F - 28.9 °F 48% 29.85 in 10.0 mi WNW 9.2 mph - N/A   Clear
4:54 AM 46.9 °F - 28.9 °F 50% 29.86 in 10.0 mi NW 17.3 mph 21.9 mph N/A   Clear
5:54 AM 46.0 °F 40.6 °F 28.9 °F 51% 29.89 in 10.0 mi West 11.5 mph - N/A   Clear
6:54 AM 45.0 °F 43.5 °F 28.9 °F 53% 29.90 in 10.0 mi NW 3.5 mph - N/A   Clear
7:54 AM 45.0 °F 38.2 °F 28.9 °F 53% 29.94 in 10.0 mi West 15.0 mph - N/A   Clear
8:54 AM 48.9 °F - 27.0 °F 43% 29.96 in 10.0 mi West 19.6 mph - N/A   Clear
9:54 AM 53.1 °F - 26.1 °F 35% 29.97 in 10.0 mi WNW 10.4 mph 23.0 mph N/A   Clear
10:54 AM 55.9 °F - 24.1 °F 29% 29.99 in 10.0 mi NW 10.4 mph - N/A   Clear
11:54 AM 60.1 °F - 21.9 °F 23% 30.00 in 10.0 mi WNW 9.2 mph - N/A   Clear
12:54 PM 63.0 °F - 19.0 °F 18% 29.99 in 10.0 mi North 9.2 mph 18.4 mph N/A   Clear
1:54 PM 66.0 °F - 18.0 °F 16% 29.96 in 10.0 mi NW 12.7 mph 18.4 mph N/A   Clear
2:54 PM 69.1 °F - 18.0 °F 14% 29.96 in 10.0 mi NW 9.2 mph - N/A   Clear
3:54 PM 70.0 °F - 16.0 °F 13% 29.95 in 10.0 mi NNW 10.4 mph 17.3 mph N/A   Clear
4:54 PM 70.0 °F - 19.0 °F 14% 29.96 in 10.0 mi NNW 9.2 mph - N/A   Clear
5:54 PM 69.1 °F - 18.0 °F 14% 29.96 in 10.0 mi WNW 11.5 mph - N/A   Clear
6:54 PM 66.0 °F - 18.0 °F 16% 29.98 in 10.0 mi WNW 10.4 mph - N/A   Clear
7:54 PM 62.1 °F - 19.9 °F 20% 30.00 in 10.0 mi WNW 6.9 mph - N/A   Clear
8:54 PM 59.0 °F - 19.0 °F 21% 30.02 in 10.0 mi NW 8.1 mph - N/A   Clear
9:54 PM 55.0 °F - 23.0 °F 29% 30.05 in 10.0 mi Calm Calm - N/A   Clear
10:54 PM 55.0 °F - 21.0 °F 27% 30.07 in 10.0 mi WNW 3.5 mph - N/A   Clear
11:54 PM 53.1 °F - 21.0 °F 29% 30.08 in 10.0 mi NW 4.6 mph - N/A   Clear